<?xml version="1.0" encoding="UTF-8" standalone="no" ?>
<gpx xmlns="http://www.topografix.com/GPX/1/1" xmlns:xsi="http://www.w3.org/2001/XMLSchema-instance" xsi:schemaLocation="http://www.topografix.com/GPX/1/1 http://www.topografix.com/GPX/1/1/gpx.xsd" version="1.1" creator="VisuGPX - https://www.visugpx.com">
  <metadata>
    <name>Rando sur cou la roche</name>
    <desc><![CDATA[cou]]></desc>
  </metadata>
  <trk>
    <name><![CDATA[Rando sur cou la roche_1]]></name>
    <desc><![CDATA[cou]]></desc>
    <trkseg>
      <trkpt lat="46.02461" lon="6.37664">
        <ele>1070.56543</ele>
        <time>2009-02-13T21:27:57.131Z</time>
      </trkpt>
      <trkpt lat="46.02463" lon="6.37655">
        <ele>1066.239258</ele>
        <time>2009-02-13T21:27:57.131Z</time>
      </trkpt>
      <trkpt lat="46.02461" lon="6.37655">
        <ele>1024.422119</ele>
        <time>2009-02-13T21:27:57.131Z</time>
      </trkpt>
      <trkpt lat="46.02463" lon="6.37654">
        <ele>1001.350403</ele>
        <time>2009-02-13T21:27:57.131Z</time>
      </trkpt>
      <trkpt lat="46.02461" lon="6.3765">
        <ele>975.394775</ele>
        <time>2009-02-13T21:27:57.131Z</time>
      </trkpt>
      <trkpt lat="46.0246" lon="6.3765">
        <ele>946.55542</ele>
        <time>2009-02-13T21:27:57.131Z</time>
      </trkpt>
      <trkpt lat="46.02458" lon="6.37651">
        <ele>943.190674</ele>
        <time>2009-02-13T21:27:57.131Z</time>
      </trkpt>
      <trkpt lat="46.0246" lon="6.37646">
        <ele>939.825928</ele>
        <time>2009-02-13T21:27:57.131Z</time>
      </trkpt>
      <trkpt lat="46.02455" lon="6.37651">
        <ele>940.306885</ele>
        <time>2009-02-13T21:27:57.131Z</time>
      </trkpt>
      <trkpt lat="46.02445" lon="6.37681">
        <ele>943.671387</ele>
        <time>2009-02-13T21:27:57.131Z</time>
      </trkpt>
      <trkpt lat="46.02432" lon="6.37698">
        <ele>946.074707</ele>
        <time>2009-02-13T21:27:57.131Z</time>
      </trkpt>
      <trkpt lat="46.02429" lon="6.37709">
        <ele>947.516541</ele>
        <time>2009-02-13T21:27:57.131Z</time>
      </trkpt>
      <trkpt lat="46.02429" lon="6.3772">
        <ele>947.516541</ele>
        <time>2009-02-13T21:27:57.131Z</time>
      </trkpt>
      <trkpt lat="46.02417" lon="6.37761">
        <ele>950.881104</ele>
        <time>2009-02-13T21:27:57.131Z</time>
      </trkpt>
      <trkpt lat="46.0241" lon="6.37755">
        <ele>953.765137</ele>
        <time>2009-02-13T21:27:57.131Z</time>
      </trkpt>
      <trkpt lat="46.02415" lon="6.37684">
        <ele>959.052429</ele>
        <time>2009-02-13T21:27:57.131Z</time>
      </trkpt>
      <trkpt lat="46.02415" lon="6.37677">
        <ele>960.013672</ele>
        <time>2009-02-13T21:27:57.131Z</time>
      </trkpt>
      <trkpt lat="46.02422" lon="6.37648">
        <ele>962.897705</ele>
        <time>2009-02-13T21:27:57.131Z</time>
      </trkpt>
      <trkpt lat="46.02436" lon="6.37615">
        <ele>966.262207</ele>
        <time>2009-02-13T21:27:57.131Z</time>
      </trkpt>
      <trkpt lat="46.02454" lon="6.37599">
        <ele>968.184875</ele>
        <time>2009-02-13T21:27:57.131Z</time>
      </trkpt>
      <trkpt lat="46.02462" lon="6.37593">
        <ele>970.588135</ele>
        <time>2009-02-13T21:27:57.131Z</time>
      </trkpt>
      <trkpt lat="46.02471" lon="6.37583">
        <ele>972.510986</ele>
        <time>2009-02-13T21:27:57.131Z</time>
      </trkpt>
      <trkpt lat="46.02483" lon="6.37573">
        <ele>973.952881</ele>
        <time>2009-02-13T21:27:57.131Z</time>
      </trkpt>
      <trkpt lat="46.02484" lon="6.37562">
        <ele>975.875488</ele>
        <time>2009-02-13T21:27:57.131Z</time>
      </trkpt>
      <trkpt lat="46.02479" lon="6.37502">
        <ele>980.201355</ele>
        <time>2009-02-13T21:27:57.131Z</time>
      </trkpt>
      <trkpt lat="46.02472" lon="6.37469">
        <ele>982.604736</ele>
        <time>2009-02-13T21:27:57.131Z</time>
      </trkpt>
      <trkpt lat="46.02471" lon="6.3744">
        <ele>985.488525</ele>
        <time>2009-02-13T21:27:57.131Z</time>
      </trkpt>
      <trkpt lat="46.02465" lon="6.37424">
        <ele>987.891846</ele>
        <time>2009-02-13T21:27:57.131Z</time>
      </trkpt>
      <trkpt lat="46.0246" lon="6.37394">
        <ele>989.814697</ele>
        <time>2009-02-13T21:27:57.131Z</time>
      </trkpt>
      <trkpt lat="46.02466" lon="6.37392">
        <ele>989.814697</ele>
        <time>2009-02-13T21:27:57.131Z</time>
      </trkpt>
      <trkpt lat="46.0247" lon="6.374">
        <ele>990.29541</ele>
        <time>2009-02-13T21:27:57.131Z</time>
      </trkpt>
      <trkpt lat="46.02479" lon="6.37406">
        <ele>990.77594</ele>
        <time>2009-02-13T21:27:57.131Z</time>
      </trkpt>
      <trkpt lat="46.02498" lon="6.37415">
        <ele>993.179199</ele>
        <time>2009-02-13T21:27:57.131Z</time>
      </trkpt>
      <trkpt lat="46.02527" lon="6.3744">
        <ele>997.505127</ele>
        <time>2009-02-13T21:27:57.131Z</time>
      </trkpt>
      <trkpt lat="46.02574" lon="6.37505">
        <ele>1006.156982</ele>
        <time>2009-02-13T21:27:57.131Z</time>
      </trkpt>
      <trkpt lat="46.026" lon="6.37548">
        <ele>1010.963623</ele>
        <time>2009-02-13T21:27:57.131Z</time>
      </trkpt>
      <trkpt lat="46.02624" lon="6.37548">
        <ele>1014.328125</ele>
        <time>2009-02-13T21:27:57.131Z</time>
      </trkpt>
      <trkpt lat="46.02635" lon="6.37554">
        <ele>1016.731445</ele>
        <time>2009-02-13T21:27:57.131Z</time>
      </trkpt>
      <trkpt lat="46.02647" lon="6.37568">
        <ele>1018.17334</ele>
        <time>2009-02-13T21:27:57.131Z</time>
      </trkpt>
      <trkpt lat="46.02686" lon="6.3764">
        <ele>1028.267334</ele>
        <time>2009-02-13T21:27:57.131Z</time>
      </trkpt>
      <trkpt lat="46.02696" lon="6.37654">
        <ele>1029.228516</ele>
        <time>2009-02-13T21:27:57.131Z</time>
      </trkpt>
      <trkpt lat="46.02745" lon="6.37691">
        <ele>1036.438721</ele>
        <time>2009-02-13T21:27:57.131Z</time>
      </trkpt>
      <trkpt lat="46.02748" lon="6.37679">
        <ele>1039.32251</ele>
        <time>2009-02-13T21:27:57.131Z</time>
      </trkpt>
      <trkpt lat="46.02725" lon="6.37648">
        <ele>1041.72583</ele>
        <time>2009-02-13T21:27:57.131Z</time>
      </trkpt>
      <trkpt lat="46.02717" lon="6.37631">
        <ele>1044.12915</ele>
        <time>2009-02-13T21:27:57.131Z</time>
      </trkpt>
      <trkpt lat="46.02712" lon="6.37613">
        <ele>1046.051758</ele>
        <time>2009-02-13T21:27:57.131Z</time>
      </trkpt>
      <trkpt lat="46.02698" lon="6.37486">
        <ele>1060.471436</ele>
        <time>2009-02-13T21:27:57.131Z</time>
      </trkpt>
      <trkpt lat="46.02691" lon="6.37452">
        <ele>1062.394043</ele>
        <time>2009-02-13T21:27:57.131Z</time>
      </trkpt>
      <trkpt lat="46.02685" lon="6.37431">
        <ele>1064.797363</ele>
        <time>2009-02-13T21:27:57.131Z</time>
      </trkpt>
      <trkpt lat="46.02672" lon="6.37418">
        <ele>1066.719971</ele>
        <time>2009-02-13T21:27:57.131Z</time>
      </trkpt>
      <trkpt lat="46.02659" lon="6.37411">
        <ele>1068.162109</ele>
        <time>2009-02-13T21:27:57.131Z</time>
      </trkpt>
      <trkpt lat="46.02646" lon="6.37406">
        <ele>1071.526611</ele>
        <time>2009-02-13T21:27:57.131Z</time>
      </trkpt>
      <trkpt lat="46.02638" lon="6.37397">
        <ele>1072.488037</ele>
        <time>2009-02-13T21:27:57.131Z</time>
      </trkpt>
      <trkpt lat="46.02629" lon="6.37379">
        <ele>1074.891357</ele>
        <time>2009-02-13T21:27:57.131Z</time>
      </trkpt>
      <trkpt lat="46.02626" lon="6.3736">
        <ele>1077.294678</ele>
        <time>2009-02-13T21:27:57.131Z</time>
      </trkpt>
      <trkpt lat="46.02627" lon="6.3734">
        <ele>1080.65918</ele>
        <time>2009-02-13T21:27:57.131Z</time>
      </trkpt>
      <trkpt lat="46.02631" lon="6.373">
        <ele>1082.581787</ele>
        <time>2009-02-13T21:27:57.131Z</time>
      </trkpt>
      <trkpt lat="46.02602" lon="6.37253">
        <ele>1089.791748</ele>
        <time>2009-02-13T21:27:57.131Z</time>
      </trkpt>
      <trkpt lat="46.02584" lon="6.37232">
        <ele>1096.040283</ele>
        <time>2009-02-13T21:27:57.131Z</time>
      </trkpt>
      <trkpt lat="46.02571" lon="6.37226">
        <ele>1097.962891</ele>
        <time>2009-02-13T21:27:57.131Z</time>
      </trkpt>
      <trkpt lat="46.02562" lon="6.37219">
        <ele>1099.404785</ele>
        <time>2009-02-13T21:27:57.131Z</time>
      </trkpt>
      <trkpt lat="46.02555" lon="6.37207">
        <ele>1102.769531</ele>
        <time>2009-02-13T21:27:57.131Z</time>
      </trkpt>
      <trkpt lat="46.02551" lon="6.37187">
        <ele>1104.692139</ele>
        <time>2009-02-13T21:27:57.131Z</time>
      </trkpt>
      <trkpt lat="46.02548" lon="6.37157">
        <ele>1110.459961</ele>
        <time>2009-02-13T21:27:57.131Z</time>
      </trkpt>
      <trkpt lat="46.02543" lon="6.37146">
        <ele>1112.382568</ele>
        <time>2009-02-13T21:27:57.131Z</time>
      </trkpt>
      <trkpt lat="46.02526" lon="6.37136">
        <ele>1116.70874</ele>
        <time>2009-02-13T21:27:57.131Z</time>
      </trkpt>
      <trkpt lat="46.02504" lon="6.37108">
        <ele>1121.515137</ele>
        <time>2009-02-13T21:27:57.131Z</time>
      </trkpt>
      <trkpt lat="46.02492" lon="6.37104">
        <ele>1123.918457</ele>
        <time>2009-02-13T21:27:57.131Z</time>
      </trkpt>
      <trkpt lat="46.02487" lon="6.37086">
        <ele>1126.321777</ele>
        <time>2009-02-13T21:27:57.131Z</time>
      </trkpt>
      <trkpt lat="46.02475" lon="6.37064">
        <ele>1130.647705</ele>
        <time>2009-02-13T21:27:57.131Z</time>
      </trkpt>
      <trkpt lat="46.0247" lon="6.37057">
        <ele>1133.531738</ele>
        <time>2009-02-13T21:27:57.131Z</time>
      </trkpt>
      <trkpt lat="46.02466" lon="6.37042">
        <ele>1136.415771</ele>
        <time>2009-02-13T21:27:57.131Z</time>
      </trkpt>
      <trkpt lat="46.02456" lon="6.37025">
        <ele>1140.260986</ele>
        <time>2009-02-13T21:27:57.131Z</time>
      </trkpt>
      <trkpt lat="46.02442" lon="6.36991">
        <ele>1147.951416</ele>
        <time>2009-02-13T21:27:57.131Z</time>
      </trkpt>
      <trkpt lat="46.02436" lon="6.36961">
        <ele>1151.796875</ele>
        <time>2009-02-13T21:27:57.131Z</time>
      </trkpt>
      <trkpt lat="46.02425" lon="6.3693">
        <ele>1159.487305</ele>
        <time>2009-02-13T21:27:57.131Z</time>
      </trkpt>
      <trkpt lat="46.02414" lon="6.36914">
        <ele>1164.774658</ele>
        <time>2009-02-13T21:27:57.131Z</time>
      </trkpt>
      <trkpt lat="46.02402" lon="6.36905">
        <ele>1167.658447</ele>
        <time>2009-02-13T21:27:57.131Z</time>
      </trkpt>
      <trkpt lat="46.02394" lon="6.36865">
        <ele>1174.387695</ele>
        <time>2009-02-13T21:27:57.131Z</time>
      </trkpt>
      <trkpt lat="46.02392" lon="6.36858">
        <ele>1177.271729</ele>
        <time>2009-02-13T21:27:57.131Z</time>
      </trkpt>
      <trkpt lat="46.0238" lon="6.36824">
        <ele>1184.000977</ele>
        <time>2009-02-13T21:27:57.131Z</time>
      </trkpt>
      <trkpt lat="46.02372" lon="6.3678">
        <ele>1190.249512</ele>
        <time>2009-02-13T21:27:57.131Z</time>
      </trkpt>
      <trkpt lat="46.02367" lon="6.36766">
        <ele>1192.652832</ele>
        <time>2009-02-13T21:27:57.131Z</time>
      </trkpt>
      <trkpt lat="46.02337" lon="6.36732">
        <ele>1198.901367</ele>
        <time>2009-02-13T21:27:57.131Z</time>
      </trkpt>
      <trkpt lat="46.02329" lon="6.36713">
        <ele>1200.343506</ele>
        <time>2009-02-13T21:27:57.131Z</time>
      </trkpt>
      <trkpt lat="46.02316" lon="6.36705">
        <ele>1200.343506</ele>
        <time>2009-02-13T21:27:57.131Z</time>
      </trkpt>
      <trkpt lat="46.02309" lon="6.36696">
        <ele>1200.823975</ele>
        <time>2009-02-13T21:27:57.131Z</time>
      </trkpt>
      <trkpt lat="46.02295" lon="6.3669">
        <ele>1201.7854</ele>
        <time>2009-02-13T21:27:57.131Z</time>
      </trkpt>
      <trkpt lat="46.02291" lon="6.36698">
        <ele>1201.7854</ele>
        <time>2009-02-13T21:27:57.131Z</time>
      </trkpt>
      <trkpt lat="46.02298" lon="6.36706">
        <ele>1203.227295</ele>
        <time>2009-02-13T21:27:57.131Z</time>
      </trkpt>
      <trkpt lat="46.02306" lon="6.36727">
        <ele>1205.630615</ele>
        <time>2009-02-13T21:27:57.131Z</time>
      </trkpt>
      <trkpt lat="46.02308" lon="6.36739">
        <ele>1208.995117</ele>
        <time>2009-02-13T21:27:57.131Z</time>
      </trkpt>
      <trkpt lat="46.0231" lon="6.36751">
        <ele>1210.437012</ele>
        <time>2009-02-13T21:27:57.131Z</time>
      </trkpt>
      <trkpt lat="46.02309" lon="6.36762">
        <ele>1212.359863</ele>
        <time>2009-02-13T21:27:57.131Z</time>
      </trkpt>
      <trkpt lat="46.02312" lon="6.36779">
        <ele>1213.801758</ele>
        <time>2009-02-13T21:27:57.131Z</time>
      </trkpt>
      <trkpt lat="46.02313" lon="6.36806">
        <ele>1217.166504</ele>
        <time>2009-02-13T21:27:57.131Z</time>
      </trkpt>
      <trkpt lat="46.02316" lon="6.36818">
        <ele>1219.569824</ele>
        <time>2009-02-13T21:27:57.131Z</time>
      </trkpt>
      <trkpt lat="46.023" lon="6.36843">
        <ele>1224.376221</ele>
        <time>2009-02-13T21:27:57.131Z</time>
      </trkpt>
      <trkpt lat="46.02296" lon="6.36856">
        <ele>1225.337402</ele>
        <time>2009-02-13T21:27:57.131Z</time>
      </trkpt>
      <trkpt lat="46.02287" lon="6.36873">
        <ele>1226.779541</ele>
        <time>2009-02-13T21:27:57.131Z</time>
      </trkpt>
      <trkpt lat="46.0227" lon="6.36897">
        <ele>1232.066895</ele>
        <time>2009-02-13T21:27:57.131Z</time>
      </trkpt>
      <trkpt lat="46.02265" lon="6.36917">
        <ele>1233.989502</ele>
        <time>2009-02-13T21:27:57.131Z</time>
      </trkpt>
      <trkpt lat="46.02258" lon="6.3693">
        <ele>1236.873291</ele>
        <time>2009-02-13T21:27:57.131Z</time>
      </trkpt>
      <trkpt lat="46.0225" lon="6.36937">
        <ele>1240.238037</ele>
        <time>2009-02-13T21:27:57.131Z</time>
      </trkpt>
      <trkpt lat="46.02241" lon="6.3695">
        <ele>1241.679932</ele>
        <time>2009-02-13T21:27:57.131Z</time>
      </trkpt>
      <trkpt lat="46.02236" lon="6.36981">
        <ele>1244.563965</ele>
        <time>2009-02-13T21:27:57.131Z</time>
      </trkpt>
      <trkpt lat="46.02229" lon="6.36996">
        <ele>1246.006104</ele>
        <time>2009-02-13T21:27:57.131Z</time>
      </trkpt>
      <trkpt lat="46.02217" lon="6.37046">
        <ele>1248.40918</ele>
        <time>2009-02-13T21:27:57.131Z</time>
      </trkpt>
      <trkpt lat="46.02208" lon="6.37107">
        <ele>1253.696533</ele>
        <time>2009-02-13T21:27:57.131Z</time>
      </trkpt>
      <trkpt lat="46.02202" lon="6.37122">
        <ele>1255.619141</ele>
        <time>2009-02-13T21:27:57.131Z</time>
      </trkpt>
      <trkpt lat="46.02188" lon="6.37123">
        <ele>1258.022461</ele>
        <time>2009-02-13T21:27:57.131Z</time>
      </trkpt>
      <trkpt lat="46.02175" lon="6.37083">
        <ele>1260.906494</ele>
        <time>2009-02-13T21:27:57.131Z</time>
      </trkpt>
      <trkpt lat="46.02161" lon="6.37051">
        <ele>1265.713135</ele>
        <time>2009-02-13T21:27:57.131Z</time>
      </trkpt>
      <trkpt lat="46.02156" lon="6.3703">
        <ele>1266.193726</ele>
        <time>2009-02-13T21:27:57.131Z</time>
      </trkpt>
      <trkpt lat="46.0215" lon="6.37">
        <ele>1268.596924</ele>
        <time>2009-02-13T21:27:57.131Z</time>
      </trkpt>
      <trkpt lat="46.02137" lon="6.36966">
        <ele>1272.922729</ele>
        <time>2009-02-13T21:27:57.131Z</time>
      </trkpt>
      <trkpt lat="46.02126" lon="6.36895">
        <ele>1281.574707</ele>
        <time>2009-02-13T21:27:57.131Z</time>
      </trkpt>
      <trkpt lat="46.02108" lon="6.36823">
        <ele>1295.033081</ele>
        <time>2009-02-13T21:27:57.131Z</time>
      </trkpt>
      <trkpt lat="46.02102" lon="6.36736">
        <ele>1303.685059</ele>
        <time>2009-02-13T21:27:57.131Z</time>
      </trkpt>
      <trkpt lat="46.0209" lon="6.36675">
        <ele>1308.491699</ele>
        <time>2009-02-13T21:27:57.131Z</time>
      </trkpt>
      <trkpt lat="46.02081" lon="6.36602">
        <ele>1316.182007</ele>
        <time>2009-02-13T21:27:57.131Z</time>
      </trkpt>
      <trkpt lat="46.02078" lon="6.3659">
        <ele>1317.624023</ele>
        <time>2009-02-13T21:27:57.131Z</time>
      </trkpt>
      <trkpt lat="46.0207" lon="6.3658">
        <ele>1319.546875</ele>
        <time>2009-02-13T21:27:57.131Z</time>
      </trkpt>
      <trkpt lat="46.02071" lon="6.36564">
        <ele>1321.949951</ele>
        <time>2009-02-13T21:27:57.131Z</time>
      </trkpt>
      <trkpt lat="46.02058" lon="6.36507">
        <ele>1330.121338</ele>
        <time>2009-02-13T21:27:57.131Z</time>
      </trkpt>
      <trkpt lat="46.02058" lon="6.36493">
        <ele>1333.005127</ele>
        <time>2009-02-13T21:27:57.131Z</time>
      </trkpt>
      <trkpt lat="46.02052" lon="6.36476">
        <ele>1334.927979</ele>
        <time>2009-02-13T21:27:57.131Z</time>
      </trkpt>
      <trkpt lat="46.0205" lon="6.36459">
        <ele>1336.85022</ele>
        <time>2009-02-13T21:27:57.131Z</time>
      </trkpt>
      <trkpt lat="46.02053" lon="6.36431">
        <ele>1341.176514</ele>
        <time>2009-02-13T21:27:57.131Z</time>
      </trkpt>
      <trkpt lat="46.02047" lon="6.36367">
        <ele>1348.866943</ele>
        <time>2009-02-13T21:27:57.131Z</time>
      </trkpt>
      <trkpt lat="46.02012" lon="6.36312">
        <ele>1356.557617</ele>
        <time>2009-02-13T21:27:57.131Z</time>
      </trkpt>
      <trkpt lat="46.02005" lon="6.3631">
        <ele>1358.960938</ele>
        <time>2009-02-13T21:27:57.131Z</time>
      </trkpt>
      <trkpt lat="46.02" lon="6.36345">
        <ele>1363.767334</ele>
        <time>2009-02-13T21:27:57.131Z</time>
      </trkpt>
      <trkpt lat="46.02001" lon="6.36369">
        <ele>1366.170654</ele>
        <time>2009-02-13T21:27:57.131Z</time>
      </trkpt>
      <trkpt lat="46.01993" lon="6.36375">
        <ele>1367.612549</ele>
        <time>2009-02-13T21:27:57.131Z</time>
      </trkpt>
      <trkpt lat="46.01988" lon="6.3636">
        <ele>1369.054688</ele>
        <time>2009-02-13T21:27:57.131Z</time>
      </trkpt>
      <trkpt lat="46.01973" lon="6.36334">
        <ele>1373.380859</ele>
        <time>2009-02-13T21:27:57.131Z</time>
      </trkpt>
      <trkpt lat="46.01969" lon="6.36318">
        <ele>1376.745483</ele>
        <time>2009-02-13T21:27:57.131Z</time>
      </trkpt>
      <trkpt lat="46.01953" lon="6.36293">
        <ele>1380.109863</ele>
        <time>2009-02-13T21:27:57.131Z</time>
      </trkpt>
      <trkpt lat="46.01947" lon="6.36277">
        <ele>1383.955078</ele>
        <time>2009-02-13T21:27:57.131Z</time>
      </trkpt>
      <trkpt lat="46.01933" lon="6.36244">
        <ele>1388.28125</ele>
        <time>2009-02-13T21:27:57.131Z</time>
      </trkpt>
      <trkpt lat="46.01897" lon="6.36189">
        <ele>1396.932983</ele>
        <time>2009-02-13T21:27:57.131Z</time>
      </trkpt>
      <trkpt lat="46.01887" lon="6.36164">
        <ele>1400.778076</ele>
        <time>2009-02-13T21:27:57.131Z</time>
      </trkpt>
      <trkpt lat="46.01878" lon="6.36151">
        <ele>1402.219849</ele>
        <time>2009-02-13T21:27:57.131Z</time>
      </trkpt>
      <trkpt lat="46.01873" lon="6.3615">
        <ele>1398.855469</ele>
        <time>2009-02-13T21:27:57.131Z</time>
      </trkpt>
      <trkpt lat="46.01854" lon="6.36136">
        <ele>1395.490967</ele>
        <time>2009-02-13T21:27:57.131Z</time>
      </trkpt>
      <trkpt lat="46.01825" lon="6.36114">
        <ele>1396.932983</ele>
        <time>2009-02-13T21:27:57.131Z</time>
      </trkpt>
      <trkpt lat="46.01813" lon="6.36101">
        <ele>1397.413696</ele>
        <time>2009-02-13T21:27:57.131Z</time>
      </trkpt>
      <trkpt lat="46.01796" lon="6.36059">
        <ele>1399.816895</ele>
        <time>2009-02-13T21:27:57.131Z</time>
      </trkpt>
      <trkpt lat="46.01747" lon="6.35973">
        <ele>1406.06543</ele>
        <time>2009-02-13T21:27:57.131Z</time>
      </trkpt>
      <trkpt lat="46.01738" lon="6.35933">
        <ele>1407.507568</ele>
        <time>2009-02-13T21:27:57.131Z</time>
      </trkpt>
      <trkpt lat="46.01719" lon="6.35892">
        <ele>1412.794678</ele>
        <time>2009-02-13T21:27:57.131Z</time>
      </trkpt>
      <trkpt lat="46.0172" lon="6.35874">
        <ele>1412.794678</ele>
        <time>2009-02-13T21:27:57.131Z</time>
      </trkpt>
      <trkpt lat="46.01728" lon="6.35864">
        <ele>1414.236572</ele>
        <time>2009-02-13T21:27:57.131Z</time>
      </trkpt>
      <trkpt lat="46.0173" lon="6.35851">
        <ele>1418.081909</ele>
        <time>2009-02-13T21:27:57.131Z</time>
      </trkpt>
      <trkpt lat="46.01734" lon="6.35839">
        <ele>1419.043335</ele>
        <time>2009-02-13T21:27:57.131Z</time>
      </trkpt>
      <trkpt lat="46.01754" lon="6.35833">
        <ele>1421.927246</ele>
        <time>2009-02-13T21:27:57.131Z</time>
      </trkpt>
      <trkpt lat="46.01753" lon="6.35815">
        <ele>1427.695068</ele>
        <time>2009-02-13T21:27:57.131Z</time>
      </trkpt>
      <trkpt lat="46.01762" lon="6.35818">
        <ele>1428.175781</ele>
        <time>2009-02-13T21:27:57.131Z</time>
      </trkpt>
      <trkpt lat="46.0177" lon="6.35819">
        <ele>1430.098389</ele>
        <time>2009-02-13T21:27:57.131Z</time>
      </trkpt>
      <trkpt lat="46.01774" lon="6.35817">
        <ele>1430.579102</ele>
        <time>2009-02-13T21:27:57.131Z</time>
      </trkpt>
      <trkpt lat="46.0177" lon="6.35798">
        <ele>1437.789063</ele>
        <time>2009-02-13T21:27:57.131Z</time>
      </trkpt>
      <trkpt lat="46.01784" lon="6.35801">
        <ele>1440.672974</ele>
        <time>2009-02-13T21:27:57.131Z</time>
      </trkpt>
      <trkpt lat="46.0179" lon="6.35794">
        <ele>1443.076172</ele>
        <time>2009-02-13T21:27:57.131Z</time>
      </trkpt>
      <trkpt lat="46.01786" lon="6.35765">
        <ele>1451.247314</ele>
        <time>2009-02-13T21:27:57.131Z</time>
      </trkpt>
      <trkpt lat="46.0179" lon="6.35731">
        <ele>1457.015381</ele>
        <time>2009-02-13T21:27:57.131Z</time>
      </trkpt>
      <trkpt lat="46.01781" lon="6.35718">
        <ele>1459.89917</ele>
        <time>2009-02-13T21:27:57.131Z</time>
      </trkpt>
      <trkpt lat="46.01777" lon="6.35707">
        <ele>1461.822021</ele>
        <time>2009-02-13T21:27:57.131Z</time>
      </trkpt>
      <trkpt lat="46.01768" lon="6.35689">
        <ele>1468.55127</ele>
        <time>2009-02-13T21:27:57.131Z</time>
      </trkpt>
      <trkpt lat="46.01764" lon="6.35664">
        <ele>1473.35791</ele>
        <time>2009-02-13T21:27:57.131Z</time>
      </trkpt>
      <trkpt lat="46.01759" lon="6.35654">
        <ele>1475.760986</ele>
        <time>2009-02-13T21:27:57.131Z</time>
      </trkpt>
      <trkpt lat="46.01759" lon="6.3563">
        <ele>1480.567627</ele>
        <time>2009-02-13T21:27:57.131Z</time>
      </trkpt>
      <trkpt lat="46.01751" lon="6.35624">
        <ele>1482.970825</ele>
        <time>2009-02-13T21:27:57.131Z</time>
      </trkpt>
      <trkpt lat="46.01749" lon="6.3562">
        <ele>1483.932251</ele>
        <time>2009-02-13T21:27:57.131Z</time>
      </trkpt>
      <trkpt lat="46.0175" lon="6.35601">
        <ele>1488.258301</ele>
        <time>2009-02-13T21:27:57.131Z</time>
      </trkpt>
      <trkpt lat="46.01747" lon="6.35598">
        <ele>1491.622681</ele>
        <time>2009-02-13T21:27:57.131Z</time>
      </trkpt>
      <trkpt lat="46.01741" lon="6.35591">
        <ele>1493.064697</ele>
        <time>2009-02-13T21:27:57.131Z</time>
      </trkpt>
      <trkpt lat="46.01745" lon="6.35573">
        <ele>1498.351807</ele>
        <time>2009-02-13T21:27:57.131Z</time>
      </trkpt>
      <trkpt lat="46.0173" lon="6.3555">
        <ele>1505.562012</ele>
        <time>2009-02-13T21:27:57.131Z</time>
      </trkpt>
      <trkpt lat="46.01725" lon="6.35539">
        <ele>1507.004028</ele>
        <time>2009-02-13T21:27:57.131Z</time>
      </trkpt>
      <trkpt lat="46.01732" lon="6.35531">
        <ele>1509.887695</ele>
        <time>2009-02-13T21:27:57.131Z</time>
      </trkpt>
      <trkpt lat="46.01734" lon="6.35522">
        <ele>1512.771606</ele>
        <time>2009-02-13T21:27:57.131Z</time>
      </trkpt>
      <trkpt lat="46.01719" lon="6.35505">
        <ele>1518.059082</ele>
        <time>2009-02-13T21:27:57.141Z</time>
      </trkpt>
      <trkpt lat="46.01713" lon="6.35486">
        <ele>1521.904297</ele>
        <time>2009-02-13T21:27:57.141Z</time>
      </trkpt>
      <trkpt lat="46.0171" lon="6.35465">
        <ele>1526.710938</ele>
        <time>2009-02-13T21:27:57.141Z</time>
      </trkpt>
      <trkpt lat="46.01689" lon="6.35407">
        <ele>1538.246826</ele>
        <time>2009-02-13T21:27:57.141Z</time>
      </trkpt>
      <trkpt lat="46.01678" lon="6.35368">
        <ele>1544.97583</ele>
        <time>2009-02-13T21:27:57.141Z</time>
      </trkpt>
      <trkpt lat="46.01664" lon="6.35343">
        <ele>1552.185791</ele>
        <time>2009-02-13T21:27:57.141Z</time>
      </trkpt>
      <trkpt lat="46.01654" lon="6.35318">
        <ele>1558.915039</ele>
        <time>2009-02-13T21:27:57.141Z</time>
      </trkpt>
      <trkpt lat="46.01647" lon="6.35294">
        <ele>1566.125</ele>
        <time>2009-02-13T21:27:57.141Z</time>
      </trkpt>
      <trkpt lat="46.01644" lon="6.35263">
        <ele>1572.373657</ele>
        <time>2009-02-13T21:27:57.141Z</time>
      </trkpt>
      <trkpt lat="46.0164" lon="6.35255">
        <ele>1575.257324</ele>
        <time>2009-02-13T21:27:57.141Z</time>
      </trkpt>
      <trkpt lat="46.01629" lon="6.35242">
        <ele>1581.506104</ele>
        <time>2009-02-13T21:27:57.141Z</time>
      </trkpt>
      <trkpt lat="46.01621" lon="6.3523">
        <ele>1584.87085</ele>
        <time>2009-02-13T21:27:57.141Z</time>
      </trkpt>
      <trkpt lat="46.01612" lon="6.35212">
        <ele>1590.638428</ele>
        <time>2009-02-13T21:27:57.141Z</time>
      </trkpt>
      <trkpt lat="46.01609" lon="6.35203">
        <ele>1592.080566</ele>
        <time>2009-02-13T21:27:57.141Z</time>
      </trkpt>
      <trkpt lat="46.01619" lon="6.35187">
        <ele>1596.406616</ele>
        <time>2009-02-13T21:27:57.141Z</time>
      </trkpt>
      <trkpt lat="46.01616" lon="6.3518">
        <ele>1598.329102</ele>
        <time>2009-02-13T21:27:57.141Z</time>
      </trkpt>
      <trkpt lat="46.01612" lon="6.35173">
        <ele>1601.693848</ele>
        <time>2009-02-13T21:27:57.141Z</time>
      </trkpt>
      <trkpt lat="46.01602" lon="6.35153">
        <ele>1606.980957</ele>
        <time>2009-02-13T21:27:57.141Z</time>
      </trkpt>
      <trkpt lat="46.01592" lon="6.35099">
        <ele>1614.671631</ele>
        <time>2009-02-13T21:27:57.141Z</time>
      </trkpt>
      <trkpt lat="46.01593" lon="6.35052">
        <ele>1618.036133</ele>
        <time>2009-02-13T21:27:57.141Z</time>
      </trkpt>
      <trkpt lat="46.01595" lon="6.35001">
        <ele>1618.036133</ele>
        <time>2009-02-13T21:27:57.141Z</time>
      </trkpt>
      <trkpt lat="46.0161" lon="6.34983">
        <ele>1621.400513</ele>
        <time>2009-02-13T21:27:57.141Z</time>
      </trkpt>
      <trkpt lat="46.0162" lon="6.34976">
        <ele>1622.842651</ele>
        <time>2009-02-13T21:27:57.141Z</time>
      </trkpt>
      <trkpt lat="46.01625" lon="6.34978">
        <ele>1624.765381</ele>
        <time>2009-02-13T21:27:57.141Z</time>
      </trkpt>
      <trkpt lat="46.01635" lon="6.34977">
        <ele>1626.207275</ele>
        <time>2009-02-13T21:27:57.141Z</time>
      </trkpt>
      <trkpt lat="46.01649" lon="6.34967">
        <ele>1631.975342</ele>
        <time>2009-02-13T21:27:57.141Z</time>
      </trkpt>
      <trkpt lat="46.01648" lon="6.3493">
        <ele>1637.262573</ele>
        <time>2009-02-13T21:27:57.141Z</time>
      </trkpt>
      <trkpt lat="46.01649" lon="6.34891">
        <ele>1644.47229</ele>
        <time>2009-02-13T21:27:57.141Z</time>
      </trkpt>
      <trkpt lat="46.01668" lon="6.34906">
        <ele>1648.317627</ele>
        <time>2009-02-13T21:27:57.141Z</time>
      </trkpt>
      <trkpt lat="46.01674" lon="6.34915">
        <ele>1650.240479</ele>
        <time>2009-02-13T21:27:57.141Z</time>
      </trkpt>
      <trkpt lat="46.01684" lon="6.34923">
        <ele>1653.60498</ele>
        <time>2009-02-13T21:27:57.141Z</time>
      </trkpt>
      <trkpt lat="46.01703" lon="6.34929">
        <ele>1657.450195</ele>
        <time>2009-02-13T21:27:57.141Z</time>
      </trkpt>
      <trkpt lat="46.01713" lon="6.34932">
        <ele>1660.814819</ele>
        <time>2009-02-13T21:27:57.141Z</time>
      </trkpt>
      <trkpt lat="46.01749" lon="6.34946">
        <ele>1666.582642</ele>
        <time>2009-02-13T21:27:57.141Z</time>
      </trkpt>
      <trkpt lat="46.01777" lon="6.34945">
        <ele>1672.831299</ele>
        <time>2009-02-13T21:27:57.141Z</time>
      </trkpt>
      <trkpt lat="46.01761" lon="6.34928">
        <ele>1676.196045</ele>
        <time>2009-02-13T21:27:57.141Z</time>
      </trkpt>
      <trkpt lat="46.01756" lon="6.34921">
        <ele>1679.560547</ele>
        <time>2009-02-13T21:27:57.141Z</time>
      </trkpt>
      <trkpt lat="46.01745" lon="6.34903">
        <ele>1683.886475</ele>
        <time>2009-02-13T21:27:57.141Z</time>
      </trkpt>
      <trkpt lat="46.01725" lon="6.34849">
        <ele>1693.980469</ele>
        <time>2009-02-13T21:27:57.141Z</time>
      </trkpt>
      <trkpt lat="46.01723" lon="6.34835">
        <ele>1695.903076</ele>
        <time>2009-02-13T21:27:57.141Z</time>
      </trkpt>
      <trkpt lat="46.01729" lon="6.34834">
        <ele>1698.306152</ele>
        <time>2009-02-13T21:27:57.141Z</time>
      </trkpt>
      <trkpt lat="46.01747" lon="6.34843">
        <ele>1704.074341</ele>
        <time>2009-02-13T21:27:57.141Z</time>
      </trkpt>
      <trkpt lat="46.0175" lon="6.34839">
        <ele>1706.958008</ele>
        <time>2009-02-13T21:27:57.141Z</time>
      </trkpt>
      <trkpt lat="46.01745" lon="6.34817">
        <ele>1711.28418</ele>
        <time>2009-02-13T21:27:57.141Z</time>
      </trkpt>
      <trkpt lat="46.01751" lon="6.34822">
        <ele>1711.764893</ele>
        <time>2009-02-13T21:27:57.141Z</time>
      </trkpt>
      <trkpt lat="46.01755" lon="6.34821">
        <ele>1714.167969</ele>
        <time>2009-02-13T21:27:57.141Z</time>
      </trkpt>
      <trkpt lat="46.01752" lon="6.34815">
        <ele>1717.532471</ele>
        <time>2009-02-13T21:27:57.141Z</time>
      </trkpt>
      <trkpt lat="46.0175" lon="6.34805">
        <ele>1718.493896</ele>
        <time>2009-02-13T21:27:57.141Z</time>
      </trkpt>
      <trkpt lat="46.01768" lon="6.34814">
        <ele>1723.300537</ele>
        <time>2009-02-13T21:27:57.141Z</time>
      </trkpt>
      <trkpt lat="46.01768" lon="6.3481">
        <ele>1725.703979</ele>
        <time>2009-02-13T21:27:57.141Z</time>
      </trkpt>
      <trkpt lat="46.01779" lon="6.34811">
        <ele>1727.626465</ele>
        <time>2009-02-13T21:27:57.141Z</time>
      </trkpt>
      <trkpt lat="46.01794" lon="6.3481">
        <ele>1733.394287</ele>
        <time>2009-02-13T21:27:57.141Z</time>
      </trkpt>
      <trkpt lat="46.01797" lon="6.34808">
        <ele>1735.316895</ele>
        <time>2009-02-13T21:27:57.141Z</time>
      </trkpt>
      <trkpt lat="46.01792" lon="6.34794">
        <ele>1738.200928</ele>
        <time>2009-02-13T21:27:57.141Z</time>
      </trkpt>
      <trkpt lat="46.01794" lon="6.34785">
        <ele>1741.084961</ele>
        <time>2009-02-13T21:27:57.141Z</time>
      </trkpt>
      <trkpt lat="46.01812" lon="6.34789">
        <ele>1744.449463</ele>
        <time>2009-02-13T21:27:57.141Z</time>
      </trkpt>
      <trkpt lat="46.01832" lon="6.34788">
        <ele>1747.814331</ele>
        <time>2009-02-13T21:27:57.141Z</time>
      </trkpt>
      <trkpt lat="46.01827" lon="6.34766">
        <ele>1752.620483</ele>
        <time>2009-02-13T21:27:57.141Z</time>
      </trkpt>
      <trkpt lat="46.01826" lon="6.3475">
        <ele>1755.985107</ele>
        <time>2009-02-13T21:27:57.141Z</time>
      </trkpt>
      <trkpt lat="46.01835" lon="6.34728">
        <ele>1760.791992</ele>
        <time>2009-02-13T21:27:57.141Z</time>
      </trkpt>
      <trkpt lat="46.01844" lon="6.34718">
        <ele>1763.195313</ele>
        <time>2009-02-13T21:27:57.141Z</time>
      </trkpt>
      <trkpt lat="46.01857" lon="6.34708">
        <ele>1768.963257</ele>
        <time>2009-02-13T21:27:57.141Z</time>
      </trkpt>
      <trkpt lat="46.01877" lon="6.34704">
        <ele>1774.731201</ele>
        <time>2009-02-13T21:27:57.141Z</time>
      </trkpt>
      <trkpt lat="46.019" lon="6.34694">
        <ele>1783.863525</ele>
        <time>2009-02-13T21:27:57.141Z</time>
      </trkpt>
      <trkpt lat="46.01915" lon="6.34685">
        <ele>1787.70874</ele>
        <time>2009-02-13T21:27:57.141Z</time>
      </trkpt>
      <trkpt lat="46.01946" lon="6.3468">
        <ele>1798.763916</ele>
        <time>2009-02-13T21:27:57.141Z</time>
      </trkpt>
      <trkpt lat="46.01971" lon="6.3467">
        <ele>1808.85791</ele>
        <time>2009-02-13T21:27:57.141Z</time>
      </trkpt>
      <trkpt lat="46.01978" lon="6.34667">
        <ele>1810.299805</ele>
        <time>2009-02-13T21:27:57.141Z</time>
      </trkpt>
      <trkpt lat="46.0199" lon="6.34653">
        <ele>1816.54834</ele>
        <time>2009-02-13T21:27:57.141Z</time>
      </trkpt>
      <trkpt lat="46.01999" lon="6.34638">
        <ele>1820.393799</ele>
        <time>2009-02-13T21:27:57.141Z</time>
      </trkpt>
      <trkpt lat="46.02002" lon="6.34637">
        <ele>1819.912842</ele>
        <time>2009-02-13T21:27:57.141Z</time>
      </trkpt>
      <trkpt lat="46.02002" lon="6.34638">
        <ele>1817.029053</ele>
        <time>2009-02-13T21:27:57.141Z</time>
      </trkpt>
      <trkpt lat="46.02002" lon="6.34638">
        <ele>1821.35498</ele>
        <time>2009-02-13T21:27:57.141Z</time>
      </trkpt>
      <trkpt lat="46.02002" lon="6.34637">
        <ele>1818.951538</ele>
        <time>2009-02-13T21:27:57.141Z</time>
      </trkpt>
      <trkpt lat="46.02003" lon="6.34638">
        <ele>1817.029053</ele>
        <time>2009-02-13T21:27:57.141Z</time>
      </trkpt>
      <trkpt lat="46.02003" lon="6.3464">
        <ele>1818.470825</ele>
        <time>2009-02-13T21:27:57.141Z</time>
      </trkpt>
      <trkpt lat="46.02003" lon="6.3464">
        <ele>1813.18396</ele>
        <time>2009-02-13T21:27:57.141Z</time>
      </trkpt>
      <trkpt lat="46.02003" lon="6.3464">
        <ele>1816.54834</ele>
        <time>2009-02-13T21:27:57.141Z</time>
      </trkpt>
      <trkpt lat="46.02004" lon="6.34636">
        <ele>1817.509399</ele>
        <time>2009-02-13T21:27:57.141Z</time>
      </trkpt>
      <trkpt lat="46.02005" lon="6.34634">
        <ele>1816.067627</ele>
        <time>2009-02-13T21:27:57.141Z</time>
      </trkpt>
      <trkpt lat="46.02005" lon="6.34637">
        <ele>1814.14502</ele>
        <time>2009-02-13T21:27:57.141Z</time>
      </trkpt>
      <trkpt lat="46.02" lon="6.34639">
        <ele>1817.029053</ele>
        <time>2009-02-13T21:27:57.141Z</time>
      </trkpt>
      <trkpt lat="46.01999" lon="6.34637">
        <ele>1817.509399</ele>
        <time>2009-02-13T21:27:57.141Z</time>
      </trkpt>
      <trkpt lat="46.01999" lon="6.34639">
        <ele>1817.509399</ele>
        <time>2009-02-13T21:27:57.141Z</time>
      </trkpt>
      <trkpt lat="46.0199" lon="6.34646">
        <ele>1815.587158</ele>
        <time>2009-02-13T21:27:57.141Z</time>
      </trkpt>
      <trkpt lat="46.01991" lon="6.34653">
        <ele>1813.664307</ele>
        <time>2009-02-13T21:27:57.141Z</time>
      </trkpt>
      <trkpt lat="46.02004" lon="6.34664">
        <ele>1810.780518</ele>
        <time>2009-02-13T21:27:57.141Z</time>
      </trkpt>
      <trkpt lat="46.02005" lon="6.34671">
        <ele>1809.819092</ele>
        <time>2009-02-13T21:27:57.141Z</time>
      </trkpt>
      <trkpt lat="46.02" lon="6.34676">
        <ele>1808.377197</ele>
        <time>2009-02-13T21:27:57.141Z</time>
      </trkpt>
      <trkpt lat="46.01999" lon="6.34632">
        <ele>1802.128418</ele>
        <time>2009-02-13T21:27:57.141Z</time>
      </trkpt>
      <trkpt lat="46.01999" lon="6.34632">
        <ele>1785.786133</ele>
        <time>2009-02-13T21:27:57.141Z</time>
      </trkpt>
      <trkpt lat="46.01974" lon="6.34749">
        <ele>1782.421631</ele>
        <time>2009-02-13T21:27:57.141Z</time>
      </trkpt>
      <trkpt lat="46.01971" lon="6.34754">
        <ele>1779.056885</ele>
        <time>2009-02-13T21:27:57.141Z</time>
      </trkpt>
      <trkpt lat="46.0197" lon="6.34768">
        <ele>1774.731201</ele>
        <time>2009-02-13T21:27:57.141Z</time>
      </trkpt>
      <trkpt lat="46.01962" lon="6.34773">
        <ele>1768.963257</ele>
        <time>2009-02-13T21:27:57.141Z</time>
      </trkpt>
      <trkpt lat="46.01956" lon="6.34782">
        <ele>1764.637207</ele>
        <time>2009-02-13T21:27:57.141Z</time>
      </trkpt>
      <trkpt lat="46.01942" lon="6.34798">
        <ele>1758.869385</ele>
        <time>2009-02-13T21:27:57.141Z</time>
      </trkpt>
      <trkpt lat="46.0194" lon="6.34812">
        <ele>1749.256104</ele>
        <time>2009-02-13T21:27:57.141Z</time>
      </trkpt>
      <trkpt lat="46.01934" lon="6.34819">
        <ele>1744.449463</ele>
        <time>2009-02-13T21:27:57.141Z</time>
      </trkpt>
      <trkpt lat="46.01939" lon="6.34829">
        <ele>1739.642822</ele>
        <time>2009-02-13T21:27:57.141Z</time>
      </trkpt>
      <trkpt lat="46.01954" lon="6.34838">
        <ele>1735.797607</ele>
        <time>2009-02-13T21:27:57.141Z</time>
      </trkpt>
      <trkpt lat="46.01949" lon="6.34867">
        <ele>1725.703979</ele>
        <time>2009-02-13T21:27:57.141Z</time>
      </trkpt>
      <trkpt lat="46.01936" lon="6.34878">
        <ele>1720.897217</ele>
        <time>2009-02-13T21:27:57.141Z</time>
      </trkpt>
      <trkpt lat="46.01932" lon="6.34884">
        <ele>1715.129395</ele>
        <time>2009-02-13T21:27:57.141Z</time>
      </trkpt>
      <trkpt lat="46.0193" lon="6.34899">
        <ele>1709.361572</ele>
        <time>2009-02-13T21:27:57.141Z</time>
      </trkpt>
      <trkpt lat="46.01923" lon="6.3491">
        <ele>1706.477295</ele>
        <time>2009-02-13T21:27:57.141Z</time>
      </trkpt>
      <trkpt lat="46.01925" lon="6.34925">
        <ele>1701.190186</ele>
        <time>2009-02-13T21:27:57.141Z</time>
      </trkpt>
      <trkpt lat="46.01932" lon="6.34932">
        <ele>1699.748291</ele>
        <time>2009-02-13T21:27:57.141Z</time>
      </trkpt>
      <trkpt lat="46.01926" lon="6.34931">
        <ele>1696.383789</ele>
        <time>2009-02-13T21:27:57.141Z</time>
      </trkpt>
      <trkpt lat="46.01925" lon="6.34942">
        <ele>1693.980469</ele>
        <time>2009-02-13T21:27:57.141Z</time>
      </trkpt>
      <trkpt lat="46.01927" lon="6.34942">
        <ele>1695.422363</ele>
        <time>2009-02-13T21:27:57.141Z</time>
      </trkpt>
      <trkpt lat="46.01935" lon="6.34958">
        <ele>1692.057861</ele>
        <time>2009-02-13T21:27:57.141Z</time>
      </trkpt>
      <trkpt lat="46.01936" lon="6.34976">
        <ele>1685.328369</ele>
        <time>2009-02-13T21:27:57.141Z</time>
      </trkpt>
      <trkpt lat="46.01939" lon="6.34984">
        <ele>1681.963989</ele>
        <time>2009-02-13T21:27:57.141Z</time>
      </trkpt>
      <trkpt lat="46.01945" lon="6.35021">
        <ele>1668.986084</ele>
        <time>2009-02-13T21:27:57.141Z</time>
      </trkpt>
      <trkpt lat="46.01941" lon="6.35032">
        <ele>1664.179443</ele>
        <time>2009-02-13T21:27:57.141Z</time>
      </trkpt>
      <trkpt lat="46.01944" lon="6.35042">
        <ele>1660.334351</ele>
        <time>2009-02-13T21:27:57.141Z</time>
      </trkpt>
      <trkpt lat="46.0194" lon="6.35049">
        <ele>1656.008057</ele>
        <time>2009-02-13T21:27:57.141Z</time>
      </trkpt>
      <trkpt lat="46.01893" lon="6.35144">
        <ele>1646.395264</ele>
        <time>2009-02-13T21:27:57.141Z</time>
      </trkpt>
      <trkpt lat="46.01923" lon="6.35072">
        <ele>1641.107666</ele>
        <time>2009-02-13T21:27:57.141Z</time>
      </trkpt>
      <trkpt lat="46.01892" lon="6.35143">
        <ele>1637.262573</ele>
        <time>2009-02-13T21:27:57.141Z</time>
      </trkpt>
      <trkpt lat="46.0189" lon="6.35142">
        <ele>1633.897949</ele>
        <time>2009-02-13T21:27:57.141Z</time>
      </trkpt>
      <trkpt lat="46.019" lon="6.35088">
        <ele>1630.052734</ele>
        <time>2009-02-13T21:27:57.141Z</time>
      </trkpt>
      <trkpt lat="46.01892" lon="6.35143">
        <ele>1626.687988</ele>
        <time>2009-02-13T21:27:57.141Z</time>
      </trkpt>
      <trkpt lat="46.01918" lon="6.35164">
        <ele>1621.881226</ele>
        <time>2009-02-13T21:27:57.141Z</time>
      </trkpt>
      <trkpt lat="46.01913" lon="6.3516">
        <ele>1616.113647</ele>
        <time>2009-02-13T21:27:57.141Z</time>
      </trkpt>
      <trkpt lat="46.01888" lon="6.35142">
        <ele>1610.345459</ele>
        <time>2009-02-13T21:27:57.141Z</time>
      </trkpt>
      <trkpt lat="46.01873" lon="6.35143">
        <ele>1609.864746</ele>
        <time>2009-02-13T21:27:57.141Z</time>
      </trkpt>
      <trkpt lat="46.0186" lon="6.35149">
        <ele>1605.539063</ele>
        <time>2009-02-13T21:27:57.141Z</time>
      </trkpt>
      <trkpt lat="46.0186" lon="6.35149">
        <ele>1603.135742</ele>
        <time>2009-02-13T21:27:57.141Z</time>
      </trkpt>
      <trkpt lat="46.01849" lon="6.35149">
        <ele>1598.329102</ele>
        <time>2009-02-13T21:27:57.141Z</time>
      </trkpt>
      <trkpt lat="46.0184" lon="6.35149">
        <ele>1597.848633</ele>
        <time>2009-02-13T21:27:57.141Z</time>
      </trkpt>
      <trkpt lat="46.01842" lon="6.35149">
        <ele>1593.522583</ele>
        <time>2009-02-13T21:27:57.141Z</time>
      </trkpt>
      <trkpt lat="46.01852" lon="6.35198">
        <ele>1589.196533</ele>
        <time>2009-02-13T21:27:57.141Z</time>
      </trkpt>
      <trkpt lat="46.01853" lon="6.35149">
        <ele>1582.947998</ele>
        <time>2009-02-13T21:27:57.141Z</time>
      </trkpt>
      <trkpt lat="46.0186" lon="6.35149">
        <ele>1575.257324</ele>
        <time>2009-02-13T21:27:57.141Z</time>
      </trkpt>
      <trkpt lat="46.01867" lon="6.35231">
        <ele>1569.970215</ele>
        <time>2009-02-13T21:27:57.141Z</time>
      </trkpt>
      <trkpt lat="46.0186" lon="6.35149">
        <ele>1567.086426</ele>
        <time>2009-02-13T21:27:57.141Z</time>
      </trkpt>
      <trkpt lat="46.0186" lon="6.35149">
        <ele>1562.760254</ele>
        <time>2009-02-13T21:27:57.141Z</time>
      </trkpt>
      <trkpt lat="46.01879" lon="6.35264">
        <ele>1558.915039</ele>
        <time>2009-02-13T21:27:57.141Z</time>
      </trkpt>
      <trkpt lat="46.01918" lon="6.35165">
        <ele>1548.821289</ele>
        <time>2009-02-13T21:27:57.141Z</time>
      </trkpt>
      <trkpt lat="46.01873" lon="6.35299">
        <ele>1545.456543</ele>
        <time>2009-02-13T21:27:57.141Z</time>
      </trkpt>
      <trkpt lat="46.01847" lon="6.35288">
        <ele>1540.649902</ele>
        <time>2009-02-13T21:27:57.141Z</time>
      </trkpt>
      <trkpt lat="46.01855" lon="6.35318">
        <ele>1525.749512</ele>
        <time>2009-02-13T21:27:57.141Z</time>
      </trkpt>
      <trkpt lat="46.0185" lon="6.35325">
        <ele>1521.423584</ele>
        <time>2009-02-13T21:27:57.141Z</time>
      </trkpt>
      <trkpt lat="46.01853" lon="6.35338">
        <ele>1518.059082</ele>
        <time>2009-02-13T21:27:57.141Z</time>
      </trkpt>
      <trkpt lat="46.0189" lon="6.35385">
        <ele>1507.96521</ele>
        <time>2009-02-13T21:27:57.141Z</time>
      </trkpt>
      <trkpt lat="46.01884" lon="6.3541">
        <ele>1497.871338</ele>
        <time>2009-02-13T21:27:57.141Z</time>
      </trkpt>
      <trkpt lat="46.01868" lon="6.35418">
        <ele>1494.987305</ele>
        <time>2009-02-13T21:27:57.141Z</time>
      </trkpt>
      <trkpt lat="46.01836" lon="6.3541">
        <ele>1490.661255</ele>
        <time>2009-02-13T21:27:57.141Z</time>
      </trkpt>
      <trkpt lat="46.01821" lon="6.35422">
        <ele>1487.296875</ele>
        <time>2009-02-13T21:27:57.141Z</time>
      </trkpt>
      <trkpt lat="46.01825" lon="6.35542">
        <ele>1482.490234</ele>
        <time>2009-02-13T21:27:57.141Z</time>
      </trkpt>
      <trkpt lat="46.01825" lon="6.35542">
        <ele>1477.203125</ele>
        <time>2009-02-13T21:27:57.141Z</time>
      </trkpt>
      <trkpt lat="46.01824" lon="6.35543">
        <ele>1476.241699</ele>
        <time>2009-02-13T21:27:57.141Z</time>
      </trkpt>
      <trkpt lat="46.01821" lon="6.35546">
        <ele>1476.241699</ele>
        <time>2009-02-13T21:27:57.141Z</time>
      </trkpt>
      <trkpt lat="46.01818" lon="6.35562">
        <ele>1471.435059</ele>
        <time>2009-02-13T21:27:57.141Z</time>
      </trkpt>
      <trkpt lat="46.0181" lon="6.35575">
        <ele>1468.55127</ele>
        <time>2009-02-13T21:27:57.141Z</time>
      </trkpt>
      <trkpt lat="46.01802" lon="6.35585">
        <ele>1465.186523</ele>
        <time>2009-02-13T21:27:57.141Z</time>
      </trkpt>
      <trkpt lat="46.0179" lon="6.35595">
        <ele>1464.705811</ele>
        <time>2009-02-13T21:27:57.141Z</time>
      </trkpt>
      <trkpt lat="46.01771" lon="6.35632">
        <ele>1459.418701</ele>
        <time>2009-02-13T21:27:57.141Z</time>
      </trkpt>
      <trkpt lat="46.01802" lon="6.35679">
        <ele>1457.015381</ele>
        <time>2009-02-13T21:27:57.141Z</time>
      </trkpt>
      <trkpt lat="46.018" lon="6.35716">
        <ele>1452.689453</ele>
        <time>2009-02-13T21:27:57.141Z</time>
      </trkpt>
      <trkpt lat="46.01793" lon="6.35746">
        <ele>1449.324707</ele>
        <time>2009-02-13T21:27:57.141Z</time>
      </trkpt>
      <trkpt lat="46.01754" lon="6.35645">
        <ele>1443.556885</ele>
        <time>2009-02-13T21:27:57.141Z</time>
      </trkpt>
      <trkpt lat="46.01749" lon="6.35644">
        <ele>1438.750488</ele>
        <time>2009-02-13T21:27:57.141Z</time>
      </trkpt>
      <trkpt lat="46.01793" lon="6.35746">
        <ele>1429.617676</ele>
        <time>2009-02-13T21:27:57.141Z</time>
      </trkpt>
      <trkpt lat="46.01793" lon="6.35746">
        <ele>1420.485474</ele>
        <time>2009-02-13T21:27:57.141Z</time>
      </trkpt>
      <trkpt lat="46.01725" lon="6.35867">
        <ele>1415.197998</ele>
        <time>2009-02-13T21:27:57.141Z</time>
      </trkpt>
      <trkpt lat="46.01719" lon="6.35871">
        <ele>1405.584961</ele>
        <time>2009-02-13T21:27:57.141Z</time>
      </trkpt>
      <trkpt lat="46.01712" lon="6.35857">
        <ele>1404.143066</ele>
        <time>2009-02-13T21:27:57.141Z</time>
      </trkpt>
      <trkpt lat="46.01719" lon="6.35883">
        <ele>1400.778076</ele>
        <time>2009-02-13T21:27:57.141Z</time>
      </trkpt>
      <trkpt lat="46.01735" lon="6.35923">
        <ele>1399.336182</ele>
        <time>2009-02-13T21:27:57.141Z</time>
      </trkpt>
      <trkpt lat="46.0175" lon="6.35977">
        <ele>1394.529541</ele>
        <time>2009-02-13T21:27:57.141Z</time>
      </trkpt>
      <trkpt lat="46.01785" lon="6.36034">
        <ele>1389.242432</ele>
        <time>2009-02-13T21:27:57.141Z</time>
      </trkpt>
      <trkpt lat="46.01812" lon="6.36093">
        <ele>1384.916504</ele>
        <time>2009-02-13T21:27:57.141Z</time>
      </trkpt>
      <trkpt lat="46.0184" lon="6.3612">
        <ele>1382.513062</ele>
        <time>2009-02-13T21:27:57.141Z</time>
      </trkpt>
      <trkpt lat="46.01883" lon="6.36151">
        <ele>1383.955078</ele>
        <time>2009-02-13T21:27:57.141Z</time>
      </trkpt>
      <trkpt lat="46.01904" lon="6.36198">
        <ele>1379.148438</ele>
        <time>2009-02-13T21:27:57.141Z</time>
      </trkpt>
      <trkpt lat="46.01938" lon="6.36251">
        <ele>1370.977295</ele>
        <time>2009-02-13T21:27:57.141Z</time>
      </trkpt>
      <trkpt lat="46.01987" lon="6.36366">
        <ele>1352.231567</ele>
        <time>2009-02-13T21:27:57.141Z</time>
      </trkpt>
      <trkpt lat="46.01995" lon="6.36372">
        <ele>1349.828369</ele>
        <time>2009-02-13T21:27:57.141Z</time>
      </trkpt>
      <trkpt lat="46.01997" lon="6.36366">
        <ele>1348.866943</ele>
        <time>2009-02-13T21:27:57.141Z</time>
      </trkpt>
      <trkpt lat="46.01997" lon="6.36334">
        <ele>1345.502441</ele>
        <time>2009-02-13T21:27:57.141Z</time>
      </trkpt>
      <trkpt lat="46.01997" lon="6.36318">
        <ele>1341.657227</ele>
        <time>2009-02-13T21:27:57.141Z</time>
      </trkpt>
      <trkpt lat="46.02017" lon="6.36316">
        <ele>1341.176514</ele>
        <time>2009-02-13T21:27:57.141Z</time>
      </trkpt>
      <trkpt lat="46.02027" lon="6.36333">
        <ele>1341.176514</ele>
        <time>2009-02-13T21:27:57.141Z</time>
      </trkpt>
      <trkpt lat="46.02042" lon="6.36355">
        <ele>1334.447266</ele>
        <time>2009-02-13T21:27:57.141Z</time>
      </trkpt>
      <trkpt lat="46.02052" lon="6.36429">
        <ele>1325.79541</ele>
        <time>2009-02-13T21:27:57.141Z</time>
      </trkpt>
      <trkpt lat="46.02054" lon="6.36449">
        <ele>1322.430664</ele>
        <time>2009-02-13T21:27:57.141Z</time>
      </trkpt>
      <trkpt lat="46.02058" lon="6.36495">
        <ele>1317.624023</ele>
        <time>2009-02-13T21:27:57.141Z</time>
      </trkpt>
      <trkpt lat="46.02061" lon="6.36521">
        <ele>1312.817627</ele>
        <time>2009-02-13T21:27:57.141Z</time>
      </trkpt>
      <trkpt lat="46.0207" lon="6.36567">
        <ele>1308.01123</ele>
        <time>2009-02-13T21:27:57.141Z</time>
      </trkpt>
      <trkpt lat="46.02085" lon="6.3661">
        <ele>1301.762451</ele>
        <time>2009-02-13T21:27:57.141Z</time>
      </trkpt>
      <trkpt lat="46.02088" lon="6.36645">
        <ele>1296.955811</ele>
        <time>2009-02-13T21:27:57.141Z</time>
      </trkpt>
      <trkpt lat="46.02093" lon="6.36681">
        <ele>1295.513794</ele>
        <time>2009-02-13T21:27:57.141Z</time>
      </trkpt>
      <trkpt lat="46.02102" lon="6.3675">
        <ele>1290.226563</ele>
        <time>2009-02-13T21:27:57.141Z</time>
      </trkpt>
      <trkpt lat="46.02104" lon="6.36765">
        <ele>1285.419922</ele>
        <time>2009-02-13T21:27:57.141Z</time>
      </trkpt>
      <trkpt lat="46.02108" lon="6.36822">
        <ele>1279.6521</ele>
        <time>2009-02-13T21:27:57.141Z</time>
      </trkpt>
      <trkpt lat="46.02127" lon="6.36891">
        <ele>1271.000244</ele>
        <time>2009-02-13T21:27:57.141Z</time>
      </trkpt>
      <trkpt lat="46.0213" lon="6.36926">
        <ele>1262.348389</ele>
        <time>2009-02-13T21:27:57.141Z</time>
      </trkpt>
      <trkpt lat="46.0213" lon="6.36926">
        <ele>1256.099609</ele>
        <time>2009-02-13T21:27:57.141Z</time>
      </trkpt>
      <trkpt lat="46.02137" lon="6.36965">
        <ele>1255.138428</ele>
        <time>2009-02-13T21:27:57.141Z</time>
      </trkpt>
      <trkpt lat="46.02151" lon="6.36996">
        <ele>1252.735107</ele>
        <time>2009-02-13T21:27:57.141Z</time>
      </trkpt>
      <trkpt lat="46.02156" lon="6.37029">
        <ele>1250.332031</ele>
        <time>2009-02-13T21:27:57.141Z</time>
      </trkpt>
      <trkpt lat="46.02187" lon="6.37121">
        <ele>1241.679932</ele>
        <time>2009-02-13T21:27:57.141Z</time>
      </trkpt>
      <trkpt lat="46.02199" lon="6.37122">
        <ele>1236.873291</ele>
        <time>2009-02-13T21:27:57.141Z</time>
      </trkpt>
      <trkpt lat="46.0221" lon="6.37092">
        <ele>1233.508789</ele>
        <time>2009-02-13T21:27:57.141Z</time>
      </trkpt>
      <trkpt lat="46.02217" lon="6.37033">
        <ele>1229.663574</ele>
        <time>2009-02-13T21:27:57.141Z</time>
      </trkpt>
      <trkpt lat="46.02231" lon="6.36996">
        <ele>1228.22168</ele>
        <time>2009-02-13T21:27:57.141Z</time>
      </trkpt>
      <trkpt lat="46.02234" lon="6.36981">
        <ele>1227.260254</ele>
        <time>2009-02-13T21:27:57.141Z</time>
      </trkpt>
      <trkpt lat="46.02244" lon="6.36935">
        <ele>1218.127686</ele>
        <time>2009-02-13T21:27:57.141Z</time>
      </trkpt>
      <trkpt lat="46.02254" lon="6.36921">
        <ele>1216.685791</ele>
        <time>2009-02-13T21:27:57.141Z</time>
      </trkpt>
      <trkpt lat="46.02267" lon="6.36896">
        <ele>1211.398438</ele>
        <time>2009-02-13T21:27:57.141Z</time>
      </trkpt>
      <trkpt lat="46.02285" lon="6.36861">
        <ele>1207.07251</ele>
        <time>2009-02-13T21:27:57.141Z</time>
      </trkpt>
      <trkpt lat="46.02295" lon="6.36829">
        <ele>1201.7854</ele>
        <time>2009-02-13T21:27:57.141Z</time>
      </trkpt>
      <trkpt lat="46.02306" lon="6.36766">
        <ele>1195.055908</ele>
        <time>2009-02-13T21:27:57.141Z</time>
      </trkpt>
      <trkpt lat="46.02301" lon="6.36733">
        <ele>1181.597656</ele>
        <time>2009-02-13T21:27:57.141Z</time>
      </trkpt>
      <trkpt lat="46.02302" lon="6.36742">
        <ele>1181.117188</ele>
        <time>2009-02-13T21:27:57.141Z</time>
      </trkpt>
      <trkpt lat="46.02323" lon="6.36697">
        <ele>1180.636475</ele>
        <time>2009-02-13T21:27:57.141Z</time>
      </trkpt>
      <trkpt lat="46.02359" lon="6.36747">
        <ele>1179.194092</ele>
        <time>2009-02-13T21:27:57.141Z</time>
      </trkpt>
      <trkpt lat="46.02373" lon="6.36772">
        <ele>1175.348877</ele>
        <time>2009-02-13T21:27:57.141Z</time>
      </trkpt>
      <trkpt lat="46.02379" lon="6.36807">
        <ele>1170.54248</ele>
        <time>2009-02-13T21:27:57.141Z</time>
      </trkpt>
      <trkpt lat="46.02399" lon="6.36883">
        <ele>1157.083984</ele>
        <time>2009-02-13T21:27:57.141Z</time>
      </trkpt>
      <trkpt lat="46.02418" lon="6.3691">
        <ele>1151.316162</ele>
        <time>2009-02-13T21:27:57.141Z</time>
      </trkpt>
      <trkpt lat="46.02435" lon="6.3695">
        <ele>1143.144775</ele>
        <time>2009-02-13T21:27:57.141Z</time>
      </trkpt>
      <trkpt lat="46.0244" lon="6.36973">
        <ele>1135.454346</ele>
        <time>2009-02-13T21:27:57.141Z</time>
      </trkpt>
      <trkpt lat="46.02449" lon="6.36996">
        <ele>1131.128418</ele>
        <time>2009-02-13T21:27:57.141Z</time>
      </trkpt>
      <trkpt lat="46.02468" lon="6.37039">
        <ele>1122.476563</ele>
        <time>2009-02-13T21:27:57.141Z</time>
      </trkpt>
      <trkpt lat="46.02488" lon="6.37078">
        <ele>1113.824463</ele>
        <time>2009-02-13T21:27:57.141Z</time>
      </trkpt>
      <trkpt lat="46.02508" lon="6.37106">
        <ele>1107.576172</ele>
        <time>2009-02-13T21:27:57.141Z</time>
      </trkpt>
      <trkpt lat="46.02523" lon="6.37121">
        <ele>1104.21167</ele>
        <time>2009-02-13T21:27:57.141Z</time>
      </trkpt>
      <trkpt lat="46.02528" lon="6.37124">
        <ele>1099.404785</ele>
        <time>2009-02-13T21:27:57.141Z</time>
      </trkpt>
      <trkpt lat="46.02539" lon="6.3713">
        <ele>1097.001465</ele>
        <time>2009-02-13T21:27:57.141Z</time>
      </trkpt>
      <trkpt lat="46.02547" lon="6.37145">
        <ele>1094.598145</ele>
        <time>2009-02-13T21:27:57.141Z</time>
      </trkpt>
      <trkpt lat="46.02549" lon="6.37161">
        <ele>1093.636963</ele>
        <time>2009-02-13T21:27:57.141Z</time>
      </trkpt>
      <trkpt lat="46.02553" lon="6.37187">
        <ele>1087.869141</ele>
        <time>2009-02-13T21:27:57.141Z</time>
      </trkpt>
      <trkpt lat="46.02567" lon="6.37214">
        <ele>1083.062256</ele>
        <time>2009-02-13T21:27:57.141Z</time>
      </trkpt>
      <trkpt lat="46.02586" lon="6.37226">
        <ele>1080.178467</ele>
        <time>2009-02-13T21:27:57.141Z</time>
      </trkpt>
      <trkpt lat="46.02604" lon="6.37251">
        <ele>1075.371826</ele>
        <time>2009-02-13T21:27:57.141Z</time>
      </trkpt>
      <trkpt lat="46.02632" lon="6.37301">
        <ele>1069.123535</ele>
        <time>2009-02-13T21:27:57.141Z</time>
      </trkpt>
      <trkpt lat="46.02626" lon="6.37348">
        <ele>1064.31665</ele>
        <time>2009-02-13T21:27:57.141Z</time>
      </trkpt>
      <trkpt lat="46.02641" lon="6.37399">
        <ele>1059.510254</ele>
        <time>2009-02-13T21:27:57.141Z</time>
      </trkpt>
      <trkpt lat="46.02654" lon="6.37407">
        <ele>1055.665039</ele>
        <time>2009-02-13T21:27:57.141Z</time>
      </trkpt>
      <trkpt lat="46.02675" lon="6.37418">
        <ele>1053.261719</ele>
        <time>2009-02-13T21:27:57.141Z</time>
      </trkpt>
      <trkpt lat="46.02692" lon="6.37461">
        <ele>1049.41626</ele>
        <time>2009-02-13T21:27:57.141Z</time>
      </trkpt>
      <trkpt lat="46.02692" lon="6.37462">
        <ele>1046.051758</ele>
        <time>2009-02-13T21:27:57.141Z</time>
      </trkpt>
      <trkpt lat="46.02704" lon="6.37526">
        <ele>1042.206543</ele>
        <time>2009-02-13T21:27:57.141Z</time>
      </trkpt>
      <trkpt lat="46.02714" lon="6.37612">
        <ele>1033.554443</ele>
        <time>2009-02-13T21:27:57.141Z</time>
      </trkpt>
      <trkpt lat="46.02729" lon="6.37652">
        <ele>1030.189941</ele>
        <time>2009-02-13T21:27:57.141Z</time>
      </trkpt>
      <trkpt lat="46.02748" lon="6.37679">
        <ele>1024.902832</ele>
        <time>2009-02-13T21:27:57.141Z</time>
      </trkpt>
      <trkpt lat="46.02747" lon="6.37687">
        <ele>1022.980225</ele>
        <time>2009-02-13T21:27:57.141Z</time>
      </trkpt>
      <trkpt lat="46.02736" lon="6.37683">
        <ele>1020.576904</ele>
        <time>2009-02-13T21:27:57.141Z</time>
      </trkpt>
      <trkpt lat="46.02727" lon="6.37676">
        <ele>1020.576904</ele>
        <time>2009-02-13T21:27:57.141Z</time>
      </trkpt>
      <trkpt lat="46.02706" lon="6.37662">
        <ele>1016.250732</ele>
        <time>2009-02-13T21:27:57.141Z</time>
      </trkpt>
      <trkpt lat="46.02686" lon="6.37641">
        <ele>1012.886292</ele>
        <time>2009-02-13T21:27:57.141Z</time>
      </trkpt>
      <trkpt lat="46.02667" lon="6.37599">
        <ele>1008.560303</ele>
        <time>2009-02-13T21:27:57.141Z</time>
      </trkpt>
      <trkpt lat="46.02651" lon="6.37573">
        <ele>1005.676514</ele>
        <time>2009-02-13T21:27:57.141Z</time>
      </trkpt>
      <trkpt lat="46.02617" lon="6.37544">
        <ele>999.908447</ele>
        <time>2009-02-13T21:27:57.141Z</time>
      </trkpt>
      <trkpt lat="46.02591" lon="6.3754">
        <ele>996.543945</ele>
        <time>2009-02-13T21:27:57.141Z</time>
      </trkpt>
      <trkpt lat="46.02561" lon="6.37492">
        <ele>989.333984</ele>
        <time>2009-02-13T21:27:57.141Z</time>
      </trkpt>
      <trkpt lat="46.02532" lon="6.37448">
        <ele>984.527344</ele>
        <time>2009-02-13T21:27:57.141Z</time>
      </trkpt>
      <trkpt lat="46.02513" lon="6.3742">
        <ele>979.720764</ele>
        <time>2009-02-13T21:27:57.141Z</time>
      </trkpt>
      <trkpt lat="46.02507" lon="6.37413">
        <ele>978.759521</ele>
        <time>2009-02-13T21:27:57.141Z</time>
      </trkpt>
      <trkpt lat="46.02479" lon="6.37395">
        <ele>974.433594</ele>
        <time>2009-02-13T21:27:57.141Z</time>
      </trkpt>
      <trkpt lat="46.02472" lon="6.37391">
        <ele>974.433594</ele>
        <time>2009-02-13T21:27:57.141Z</time>
      </trkpt>
      <trkpt lat="46.02454" lon="6.37396">
        <ele>972.991699</ele>
        <time>2009-02-13T21:27:57.141Z</time>
      </trkpt>
      <trkpt lat="46.02456" lon="6.3741">
        <ele>971.549316</ele>
        <time>2009-02-13T21:27:57.141Z</time>
      </trkpt>
      <trkpt lat="46.02464" lon="6.37433">
        <ele>970.588135</ele>
        <time>2009-02-13T21:27:57.141Z</time>
      </trkpt>
      <trkpt lat="46.02468" lon="6.37451">
        <ele>968.665588</ele>
        <time>2009-02-13T21:27:57.141Z</time>
      </trkpt>
      <trkpt lat="46.02485" lon="6.37555">
        <ele>960.494385</ele>
        <time>2009-02-13T21:27:57.141Z</time>
      </trkpt>
      <trkpt lat="46.02486" lon="6.37572">
        <ele>958.091309</ele>
        <time>2009-02-13T21:27:57.141Z</time>
      </trkpt>
      <trkpt lat="46.02448" lon="6.37605">
        <ele>953.284424</ele>
        <time>2009-02-13T21:27:57.141Z</time>
      </trkpt>
      <trkpt lat="46.0243" lon="6.37633">
        <ele>949.439209</ele>
        <time>2009-02-13T21:27:57.141Z</time>
      </trkpt>
      <trkpt lat="46.02423" lon="6.3765">
        <ele>948.477783</ele>
        <time>2009-02-13T21:27:57.141Z</time>
      </trkpt>
      <trkpt lat="46.02413" lon="6.37704">
        <ele>941.748779</ele>
        <time>2009-02-13T21:27:57.141Z</time>
      </trkpt>
      <trkpt lat="46.02418" lon="6.37674">
        <ele>937.90332</ele>
        <time>2009-02-13T21:27:57.141Z</time>
      </trkpt>
      <trkpt lat="46.02426" lon="6.37747">
        <ele>933.09668</ele>
        <time>2009-02-13T21:27:57.141Z</time>
      </trkpt>
      <trkpt lat="46.0242" lon="6.37738">
        <ele>932.616211</ele>
        <time>2009-02-13T21:27:57.141Z</time>
      </trkpt>
      <trkpt lat="46.02431" lon="6.37693">
        <ele>929.251465</ele>
        <time>2009-02-13T21:27:57.141Z</time>
      </trkpt>
      <trkpt lat="46.02449" lon="6.37657">
        <ele>923.483643</ele>
        <time>2009-02-13T21:27:57.141Z</time>
      </trkpt>
      <trkpt lat="46.02449" lon="6.37657">
        <ele>930.693604</ele>
        <time>2009-02-13T21:27:57.141Z</time>
      </trkpt>
      <trkpt lat="46.02449" lon="6.37657">
        <ele>925.886902</ele>
        <time>2009-02-13T21:27:57.141Z</time>
      </trkpt>
      <trkpt lat="46.02449" lon="6.37657">
        <ele>929.732178</ele>
        <time>2009-02-13T21:27:57.151Z</time>
      </trkpt>
      <trkpt lat="46.02449" lon="6.37657">
        <ele>926.367615</ele>
        <time>2009-02-13T21:27:57.151Z</time>
      </trkpt>
      <trkpt lat="46.02449" lon="6.37657">
        <ele>929.732178</ele>
        <time>2009-02-13T21:27:57.151Z</time>
      </trkpt>
      <trkpt lat="46.02449" lon="6.37657">
        <ele>926.367615</ele>
        <time>2009-02-13T21:27:57.151Z</time>
      </trkpt>
      <trkpt lat="46.02449" lon="6.37657">
        <ele>929.732178</ele>
        <time>2009-02-13T21:27:57.151Z</time>
      </trkpt>
      <trkpt lat="46.02449" lon="6.37657">
        <ele>928.290283</ele>
        <time>2009-02-13T21:27:57.151Z</time>
      </trkpt>
      <trkpt lat="46.02449" lon="6.37657">
        <ele>929.732178</ele>
        <time>2009-02-13T21:27:57.151Z</time>
      </trkpt>
      <trkpt lat="46.02456" lon="6.37653">
        <ele>929.732178</ele>
        <time>2009-02-13T21:27:57.151Z</time>
      </trkpt>
      <trkpt lat="46.02445" lon="6.37664">
        <ele>930.212891</ele>
        <time>2009-02-13T21:27:57.151Z</time>
      </trkpt>
      <trkpt lat="46.02445" lon="6.37664">
        <ele>935.500061</ele>
        <time>2009-02-13T21:27:57.151Z</time>
      </trkpt>
    </trkseg>
  </trk>
</gpx>